DAL2800 KRDU-KATL

Flight info

Callsign DAL2800
Flight time 1h 4m
Altitude 34000
Route SHPRD4 SHPRD LEAVI OZZZI2
Aircraft B738/M-SDE2E3FGHIRWXY/LB1

Departure

Time 2026-05-07 00:31
Airport Raleigh-Durham International Airport (KRDU)

Arrival

Time 2026-05-07 01:36
Airport Hartsfield Jackson Atlanta International Airport (KATL)
Time Latitude Longitude Altitude Speed Heading
2026-05-06 23:47 35.87558 -78.79518 389 ft 0 kts 315°
2026-05-07 00:11 35.87548 -78.79507 389 ft 1 kts 317°
2026-05-07 00:11 35.87540 -78.79497 390 ft 2 kts 298°
2026-05-07 00:12 35.87536 -78.79480 391 ft 2 kts 270°
2026-05-07 00:12 35.87539 -78.79462 392 ft 2 kts 243°
2026-05-07 00:12 35.87544 -78.79453 392 ft 1 kts 225°
2026-05-07 00:12 35.87548 -78.79449 392 ft 0 kts 224°
2026-05-07 00:15 35.87543 -78.79456 392 ft 2 kts 224°
2026-05-07 00:16 35.87524 -78.79479 391 ft 4 kts 225°
2026-05-07 00:16 35.87497 -78.79514 390 ft 5 kts 224°
2026-05-07 00:16 35.87469 -78.79547 389 ft 5 kts 224°
2026-05-07 00:16 35.87445 -78.79575 389 ft 4 kts 224°
2026-05-07 00:17 35.87425 -78.79603 389 ft 4 kts 229°
2026-05-07 00:17 35.87413 -78.79650 386 ft 7 kts 279°
2026-05-07 00:17 35.87448 -78.79710 383 ft 9 kts 314°
2026-05-07 00:17 35.87505 -78.79776 379 ft 12 kts 320°
2026-05-07 00:18 35.87550 -78.79821 377 ft 7 kts 333°
2026-05-07 00:18 35.87600 -78.79810 376 ft 7 kts 38°
2026-05-07 00:18 35.87629 -78.79776 377 ft 4 kts 44°
2026-05-07 00:18 35.87653 -78.79747 378 ft 4 kts 44°
2026-05-07 00:19 35.87672 -78.79724 378 ft 3 kts 45°
2026-05-07 00:19 35.87701 -78.79690 379 ft 5 kts 44°
2026-05-07 00:19 35.87729 -78.79656 380 ft 5 kts 43°
2026-05-07 00:19 35.87752 -78.79628 380 ft 4 kts 47°
2026-05-07 00:20 35.87766 -78.79609 381 ft 1 kts 47°
2026-05-07 00:20 35.87797 -78.79569 382 ft 10 kts 46°
2026-05-07 00:20 35.87856 -78.79494 383 ft 12 kts 45°
2026-05-07 00:20 35.87885 -78.79412 385 ft 8 kts 92°
2026-05-07 00:21 35.87891 -78.79363 387 ft 3 kts 65°
2026-05-07 00:21 35.87923 -78.79311 389 ft 12 kts 46°
2026-05-07 00:21 35.87993 -78.79227 391 ft 13 kts 45°
2026-05-07 00:21 35.88052 -78.79155 393 ft 10 kts 45°
2026-05-07 00:22 35.88103 -78.79093 394 ft 10 kts 45°
2026-05-07 00:22 35.88154 -78.79029 396 ft 10 kts 45°
2026-05-07 00:22 35.88209 -78.78960 398 ft 11 kts 45°
2026-05-07 00:22 35.88270 -78.78886 400 ft 13 kts 44°
2026-05-07 00:23 35.88345 -78.78794 401 ft 16 kts 45°
2026-05-07 00:23 35.88433 -78.78686 403 ft 17 kts 46°
2026-05-07 00:23 35.88513 -78.78584 404 ft 16 kts 45°
2026-05-07 00:23 35.88593 -78.78486 403 ft 15 kts 45°
2026-05-07 00:24 35.88670 -78.78391 402 ft 15 kts 45°
2026-05-07 00:24 35.88744 -78.78299 400 ft 15 kts 45°
2026-05-07 00:24 35.88821 -78.78204 399 ft 16 kts 45°
2026-05-07 00:24 35.88914 -78.78089 400 ft 20 kts 45°
2026-05-07 00:25 35.88988 -78.77949 401 ft 18 kts 70°
2026-05-07 00:25 35.89049 -78.77838 403 ft 13 kts 45°
2026-05-07 00:25 35.89113 -78.77763 403 ft 11 kts 44°
2026-05-07 00:25 35.89148 -78.77721 405 ft 9 kts 44°
2026-05-07 00:26 35.89200 -78.77663 405 ft 6 kts 28°
2026-05-07 00:26 35.89241 -78.77664 405 ft 3 kts 334°
2026-05-07 00:26 35.89254 -78.77675 404 ft 1 kts 322°
2026-05-07 00:26 35.89267 -78.77689 404 ft 3 kts 318°
2026-05-07 00:27 35.89284 -78.77708 404 ft 3 kts 315°
2026-05-07 00:27 35.89294 -78.77721 404 ft 0 kts 313°
2026-05-07 00:27 35.89295 -78.77722 404 ft 0 kts 313°
2026-05-07 00:28 35.89300 -78.77729 404 ft 0 kts 313°
2026-05-07 00:30 35.89314 -78.77747 403 ft 2 kts 313°
2026-05-07 00:30 35.89336 -78.77774 403 ft 5 kts 314°
2026-05-07 00:30 35.89353 -78.77830 402 ft 9 kts 251°
2026-05-07 00:30 35.89307 -78.77897 401 ft 11 kts 223°
2026-05-07 00:31 35.89160 -78.78083 397 ft 68 kts 226°
2026-05-07 00:31 35.88605 -78.78750 399 ft 149 kts 226°
2026-05-07 00:31 35.87773 -78.79797 875 ft 178 kts 223°
2026-05-07 00:31 35.86921 -78.80801 1988 ft 173 kts 225°
2026-05-07 00:32 35.86160 -78.81749 3049 ft 156 kts 226°
2026-05-07 00:32 35.85381 -78.82745 3652 ft 165 kts 227°
2026-05-07 00:32 35.84595 -78.83705 4415 ft 164 kts 226°
2026-05-07 00:32 35.83758 -78.84746 4900 ft 180 kts 230°
2026-05-07 00:33 35.82869 -78.85892 5492 ft 192 kts 226°
2026-05-07 00:33 35.81985 -78.87150 6044 ft 203 kts 246°
2026-05-07 00:33 35.81838 -78.88924 6642 ft 218 kts 281°
2026-05-07 00:33 35.82255 -78.90673 7416 ft 223 kts 281°
2026-05-07 00:34 35.82526 -78.92618 7948 ft 238 kts 274°
2026-05-07 00:34 35.82617 -78.94701 8533 ft 252 kts 271°
2026-05-07 00:34 35.82659 -78.96889 9296 ft 258 kts 270°
2026-05-07 00:34 35.82702 -78.99062 10215 ft 258 kts 271°
2026-05-07 00:35 35.82760 -79.01233 11105 ft 257 kts 271°
2026-05-07 00:35 35.82823 -79.03433 11913 ft 260 kts 271°
2026-05-07 00:35 35.82887 -79.05648 12796 ft 259 kts 270°
2026-05-07 00:35 35.82946 -79.07839 13639 ft 259 kts 271°
2026-05-07 00:36 35.83002 -79.10068 14248 ft 267 kts 271°
2026-05-07 00:36 35.83064 -79.12350 14950 ft 270 kts 271°
2026-05-07 00:36 35.83131 -79.14675 15675 ft 272 kts 272°
2026-05-07 00:36 35.83197 -79.17028 16293 ft 277 kts 272°
2026-05-07 00:37 35.83262 -79.19379 17003 ft 278 kts 272°
2026-05-07 00:37 35.83328 -79.21777 17667 ft 281 kts 272°
2026-05-07 00:37 35.83395 -79.24191 18267 ft 285 kts 272°
2026-05-07 00:37 35.83462 -79.26622 18879 ft 288 kts 272°
2026-05-07 00:38 35.83528 -79.29140 19248 ft 299 kts 272°
2026-05-07 00:38 35.83514 -79.31744 19435 ft 316 kts 267°
2026-05-07 00:38 35.83329 -79.34445 20062 ft 318 kts 265°
2026-05-07 00:38 35.83086 -79.37169 20647 ft 321 kts 265°
2026-05-07 00:39 35.82842 -79.39896 21243 ft 323 kts 264°
2026-05-07 00:39 35.82609 -79.42638 21805 ft 326 kts 265°
2026-05-07 00:39 35.82384 -79.45436 22304 ft 330 kts 266°
2026-05-07 00:39 35.82168 -79.48252 22794 ft 333 kts 265°
2026-05-07 00:40 35.81952 -79.51109 22936 ft 344 kts 266°
2026-05-07 00:40 35.81707 -79.54029 23867 ft 335 kts 264°
2026-05-07 00:40 35.81337 -79.56832 24331 ft 339 kts 261°
2026-05-07 00:40 35.80846 -79.59666 24817 ft 342 kts 259°
2026-05-07 00:41 35.80319 -79.62517 25568 ft 337 kts 259°
2026-05-07 00:41 35.79801 -79.65314 25995 ft 341 kts 259°
2026-05-07 00:41 35.79274 -79.68176 26471 ft 342 kts 259°
2026-05-07 00:41 35.78767 -79.71032 26858 ft 347 kts 260°
2026-05-07 00:42 35.78263 -79.73962 26934 ft 349 kts 259°
2026-05-07 00:42 35.77772 -79.76849 26942 ft 347 kts 260°
2026-05-07 00:42 35.77277 -79.79771 26945 ft 343 kts 260°
2026-05-07 00:42 35.76800 -79.82593 26946 ft 342 kts 261°
2026-05-07 00:43 35.76308 -79.85494 26945 ft 344 kts 260°
2026-05-07 00:43 35.75817 -79.88371 26940 ft 344 kts 259°
2026-05-07 00:43 35.75322 -79.91214 26943 ft 343 kts 259°
2026-05-07 00:43 35.74823 -79.94074 26939 ft 340 kts 259°
2026-05-07 00:44 35.74336 -79.96944 26943 ft 343 kts 261°
2026-05-07 00:44 35.73857 -79.99795 26938 ft 342 kts 259°
2026-05-07 00:44 35.73365 -80.02638 26936 ft 342 kts 259°
2026-05-07 00:44 35.72862 -80.05494 26936 ft 341 kts 259°
2026-05-07 00:45 35.72360 -80.08325 26938 ft 341 kts 259°
2026-05-07 00:45 35.71875 -80.11189 26937 ft 342 kts 259°
2026-05-07 00:45 35.71382 -80.14050 26941 ft 343 kts 259°
2026-05-07 00:45 35.70879 -80.16924 26945 ft 344 kts 261°
2026-05-07 00:46 35.70373 -80.19793 27300 ft 348 kts 260°
2026-05-07 00:46 35.69863 -80.22676 27928 ft 344 kts 260°
2026-05-07 00:46 35.69372 -80.25518 28699 ft 336 kts 259°
2026-05-07 00:46 35.68881 -80.28279 29444 ft 329 kts 258°
2026-05-07 00:47 35.68388 -80.30976 30203 ft 320 kts 260°
2026-05-07 00:47 35.67902 -80.33621 30521 ft 323 kts 259°
2026-05-07 00:47 35.67406 -80.36346 30688 ft 329 kts 259°
2026-05-07 00:47 35.66925 -80.39094 30835 ft 336 kts 259°
2026-05-07 00:48 35.66454 -80.41939 30981 ft 342 kts 260°
2026-05-07 00:48 35.65947 -80.44829 31329 ft 343 kts 259°
2026-05-07 00:48 35.65394 -80.47633 31859 ft 340 kts 257°
2026-05-07 00:48 35.64634 -80.50375 32454 ft 336 kts 253°
2026-05-07 00:49 35.63746 -80.53014 32872 ft 335 kts 250°
2026-05-07 00:49 35.62786 -80.55614 33350 ft 332 kts 251°
2026-05-07 00:49 35.61878 -80.58173 33837 ft 328 kts 251°
2026-05-07 00:49 35.61006 -80.60757 33935 ft 331 kts 252°
2026-05-07 00:50 35.59341 -80.65964 33934 ft 325 kts 251°
2026-05-07 00:50 35.57574 -80.71117 33943 ft 325 kts 252°
2026-05-07 00:51 35.55792 -80.76263 33940 ft 328 kts 251°
2026-05-07 00:51 35.53992 -80.81416 33939 ft 332 kts 250°
2026-05-07 00:52 35.52187 -80.86629 33938 ft 331 kts 252°
2026-05-07 00:52 35.50407 -80.91823 33952 ft 328 kts 251°
2026-05-07 00:53 35.48621 -80.96948 33954 ft 331 kts 250°
2026-05-07 00:53 35.46881 -81.02180 33954 ft 334 kts 253°
2026-05-07 00:54 35.45129 -81.07500 33948 ft 332 kts 250°
2026-05-07 00:54 35.43319 -81.12653 33951 ft 330 kts 251°
2026-05-07 00:55 35.41510 -81.17881 33947 ft 337 kts 252°
2026-05-07 00:55 35.39685 -81.23183 33946 ft 336 kts 252°
2026-05-07 00:56 35.37933 -81.28393 33945 ft 335 kts 252°
2026-05-07 00:56 35.36081 -81.33657 33943 ft 336 kts 251°
2026-05-07 00:57 35.34398 -81.38941 33934 ft 331 kts 252°
2026-05-07 00:57 35.32540 -81.44153 33939 ft 334 kts 250°
2026-05-07 00:58 35.30777 -81.49438 33961 ft 341 kts 251°
2026-05-07 00:58 35.28809 -81.54765 33963 ft 342 kts 249°
2026-05-07 00:59 35.26217 -81.62743 33959 ft 337 kts 251°
2026-05-07 01:00 35.24313 -81.68026 33950 ft 344 kts 250°
2026-05-07 01:00 35.22215 -81.73280 33965 ft 344 kts 248°
2026-05-07 01:01 35.20224 -81.78546 33947 ft 342 kts 249°
2026-05-07 01:01 35.18363 -81.83971 33962 ft 351 kts 251°
2026-05-07 01:02 35.16524 -81.89489 33942 ft 347 kts 253°
2026-05-07 01:02 35.14719 -81.94911 33933 ft 347 kts 251°
2026-05-07 01:03 35.12808 -82.00338 33943 ft 345 kts 249°
2026-05-07 01:03 35.10902 -82.05652 33928 ft 342 kts 252°
2026-05-07 01:04 35.09026 -82.11076 33946 ft 352 kts 249°
2026-05-07 01:04 35.07091 -82.16506 33960 ft 348 kts 251°
2026-05-07 01:05 35.05135 -82.21882 33956 ft 344 kts 249°
2026-05-07 01:05 35.03187 -82.27257 33963 ft 353 kts 251°
2026-05-07 01:06 35.01208 -82.32683 33952 ft 349 kts 248°
2026-05-07 01:06 34.98739 -82.37791 33960 ft 350 kts 244°
2026-05-07 01:07 34.96198 -82.42862 33955 ft 350 kts 243°
2026-05-07 01:07 34.93745 -82.47885 33952 ft 342 kts 244°
2026-05-07 01:08 34.91286 -82.52898 33965 ft 346 kts 244°
2026-05-07 01:08 34.88842 -82.57931 33951 ft 343 kts 245°
2026-05-07 01:09 34.86377 -82.62859 33958 ft 344 kts 242°
2026-05-07 01:09 34.83622 -82.67651 33958 ft 345 kts 240°
2026-05-07 01:10 34.80856 -82.72386 33946 ft 343 kts 240°
2026-05-07 01:10 34.78078 -82.77084 33943 ft 338 kts 241°
2026-05-07 01:11 34.75423 -82.81755 33946 ft 339 kts 240°
2026-05-07 01:11 34.72802 -82.86575 33944 ft 343 kts 243°
2026-05-07 01:11 34.71495 -82.89031 33762 ft 340 kts 243°
2026-05-07 01:12 34.70205 -82.91362 33350 ft 336 kts 240°
2026-05-07 01:12 34.68843 -82.93678 32837 ft 335 kts 240°
2026-05-07 01:12 34.67497 -82.95989 32259 ft 335 kts 240°
2026-05-07 01:12 34.66156 -82.98304 31654 ft 336 kts 240°
2026-05-07 01:13 34.64830 -83.00594 31024 ft 337 kts 238°
2026-05-07 01:13 34.63388 -83.02852 30561 ft 334 kts 237°
2026-05-07 01:13 34.62055 -83.05143 30108 ft 328 kts 244°
2026-05-07 01:13 34.60835 -83.07455 29653 ft 325 kts 243°
2026-05-07 01:14 34.59581 -83.09746 29161 ft 325 kts 242°
2026-05-07 01:14 34.58281 -83.11960 28592 ft 325 kts 240°
2026-05-07 01:14 34.57006 -83.14183 28249 ft 325 kts 242°
2026-05-07 01:14 34.55712 -83.16528 27814 ft 344 kts 242°
2026-05-07 01:15 34.54355 -83.19009 27295 ft 365 kts 241°
2026-05-07 01:15 34.52911 -83.21581 26757 ft 376 kts 240°
2026-05-07 01:15 34.51411 -83.24188 26200 ft 374 kts 239°
2026-05-07 01:15 34.49929 -83.26733 25681 ft 369 kts 240°
2026-05-07 01:16 34.48476 -83.29262 25157 ft 365 kts 240°
2026-05-07 01:16 34.47037 -83.31782 24629 ft 361 kts 240°
2026-05-07 01:16 34.45612 -83.34246 24108 ft 356 kts 240°
2026-05-07 01:16 34.44199 -83.36657 23613 ft 353 kts 240°
2026-05-07 01:17 34.42765 -83.39073 23111 ft 349 kts 240°
2026-05-07 01:17 34.41393 -83.41454 22614 ft 345 kts 240°
2026-05-07 01:17 34.40058 -83.43822 22138 ft 342 kts 240°
2026-05-07 01:17 34.38694 -83.46206 21629 ft 340 kts 240°
2026-05-07 01:18 34.37352 -83.48511 21143 ft 338 kts 240°
2026-05-07 01:18 34.36002 -83.50819 20658 ft 335 kts 239°
2026-05-07 01:18 34.34663 -83.53120 20174 ft 332 kts 240°
2026-05-07 01:18 34.33350 -83.55360 19719 ft 331 kts 239°
2026-05-07 01:19 34.31974 -83.57610 19231 ft 339 kts 238°
2026-05-07 01:19 34.30536 -83.59969 18735 ft 352 kts 239°
2026-05-07 01:19 34.29091 -83.62367 18224 ft 358 kts 238°
2026-05-07 01:19 34.27468 -83.64623 17716 ft 359 kts 231°
2026-05-07 01:20 34.25643 -83.66685 17208 ft 356 kts 226°
2026-05-07 01:20 34.23749 -83.68621 16705 ft 353 kts 225°
2026-05-07 01:20 34.21880 -83.70490 16211 ft 349 kts 225°
2026-05-07 01:20 34.20053 -83.72355 15723 ft 344 kts 225°
2026-05-07 01:21 34.18238 -83.74237 15236 ft 341 kts 226°
2026-05-07 01:21 34.16482 -83.76090 14757 ft 339 kts 226°
2026-05-07 01:21 34.14704 -83.77982 14268 ft 334 kts 226°
2026-05-07 01:21 34.12978 -83.79827 13798 ft 331 kts 225°
2026-05-07 01:22 34.11291 -83.81625 13336 ft 327 kts 226°
2026-05-07 01:22 34.09560 -83.83469 12865 ft 327 kts 225°
2026-05-07 01:22 34.07880 -83.85270 12401 ft 327 kts 226°
2026-05-07 01:22 34.06198 -83.87086 12026 ft 320 kts 225°
2026-05-07 01:23 34.04557 -83.88849 11970 ft 305 kts 226°
2026-05-07 01:23 34.02973 -83.90508 11968 ft 306 kts 221°
2026-05-07 01:23 34.01077 -83.91795 11970 ft 317 kts 208°
2026-05-07 01:23 33.99030 -83.92693 11824 ft 310 kts 204°
2026-05-07 01:24 33.96969 -83.93501 11405 ft 308 kts 204°
2026-05-07 01:24 33.94952 -83.94282 10975 ft 305 kts 204°
2026-05-07 01:24 33.92926 -83.95074 10538 ft 302 kts 203°
2026-05-07 01:24 33.90944 -83.95867 10056 ft 301 kts 204°
2026-05-07 01:25 33.88977 -83.96663 9570 ft 300 kts 204°
2026-05-07 01:25 33.86996 -83.97464 9067 ft 298 kts 204°
2026-05-07 01:25 33.85073 -83.98243 8652 ft 287 kts 204°
2026-05-07 01:25 33.83215 -83.98992 8354 ft 273 kts 204°
2026-05-07 01:26 33.81458 -83.99704 8060 ft 260 kts 204°
2026-05-07 01:26 33.79769 -84.00384 7764 ft 249 kts 205°
2026-05-07 01:26 33.78164 -84.01020 7470 ft 239 kts 204°
2026-05-07 01:26 33.76590 -84.01637 7163 ft 231 kts 204°
2026-05-07 01:27 33.75100 -84.02222 6894 ft 220 kts 204°
2026-05-07 01:27 33.73690 -84.02781 6593 ft 211 kts 204°
2026-05-07 01:27 33.72301 -84.03325 6293 ft 204 kts 204°
2026-05-07 01:27 33.70966 -84.03845 6001 ft 197 kts 204°
2026-05-07 01:28 33.69688 -84.04344 5720 ft 190 kts 204°
2026-05-07 01:28 33.68448 -84.04819 5425 ft 184 kts 204°
2026-05-07 01:28 33.67414 -84.05608 5112 ft 173 kts 235°
2026-05-07 01:28 33.66843 -84.06830 4947 ft 161 kts 244°
2026-05-07 01:29 33.66399 -84.08006 4964 ft 148 kts 244°
2026-05-07 01:29 33.65922 -84.09098 4976 ft 150 kts 237°
2026-05-07 01:29 33.65440 -84.10197 4959 ft 146 kts 246°
2026-05-07 01:29 33.65171 -84.11337 4953 ft 139 kts 255°
2026-05-07 01:30 33.65041 -84.12479 4983 ft 139 kts 259°
2026-05-07 01:30 33.64968 -84.13659 4979 ft 144 kts 262°
2026-05-07 01:30 33.64938 -84.14853 4954 ft 142 kts 264°
2026-05-07 01:30 33.64925 -84.16089 5001 ft 156 kts 264°
2026-05-07 01:31 33.64915 -84.17437 4926 ft 173 kts 265°
2026-05-07 01:31 33.64917 -84.18939 4547 ft 182 kts 266°
2026-05-07 01:31 33.64928 -84.20403 4268 ft 170 kts 265°
2026-05-07 01:31 33.64933 -84.21784 4068 ft 167 kts 264°
2026-05-07 01:32 33.64935 -84.23196 3839 ft 170 kts 265°
2026-05-07 01:32 33.64936 -84.24616 3610 ft 170 kts 264°
2026-05-07 01:32 33.64939 -84.26037 3381 ft 168 kts 265°
2026-05-07 01:32 33.64941 -84.27437 3163 ft 169 kts 264°
2026-05-07 01:33 33.64940 -84.28848 2932 ft 170 kts 264°
2026-05-07 01:33 33.64941 -84.30282 2705 ft 173 kts 265°
2026-05-07 01:33 33.64949 -84.31723 2483 ft 169 kts 266°
2026-05-07 01:33 33.64955 -84.33054 2233 ft 155 kts 266°
2026-05-07 01:34 33.64956 -84.34296 1980 ft 142 kts 267°
2026-05-07 01:34 33.64981 -84.35507 1901 ft 147 kts 268°
2026-05-07 01:34 33.64970 -84.36771 1649 ft 154 kts 268°
2026-05-07 01:34 33.64967 -84.37987 1449 ft 142 kts 267°
2026-05-07 01:35 33.64963 -84.39170 1280 ft 138 kts 267°
2026-05-07 01:35 33.64958 -84.40318 1108 ft 140 kts 271°
2026-05-07 01:35 33.64952 -84.41469 983 ft 132 kts 269°
2026-05-07 01:35 33.64952 -84.42423 987 ft 92 kts 270°
2026-05-07 01:36 33.64943 -84.43008 999 ft 47 kts 264°
2026-05-07 01:36 33.64938 -84.43134 1001 ft 3 kts 247°
2026-05-07 01:36 33.64899 -84.43251 1004 ft 15 kts 246°
2026-05-07 01:36 33.64894 -84.43264 1004 ft 1 kts 242°
2026-05-07 01:37 33.64864 -84.43326 1006 ft 12 kts 240°
2026-05-07 01:37 33.64854 -84.43359 1007 ft 0 kts 253°
2026-05-07 01:38 33.64851 -84.43373 1007 ft 5 kts 256°
2026-05-07 01:38 33.64842 -84.43453 1009 ft 14 kts 263°
2026-05-07 01:38 33.64798 -84.43540 1011 ft 8 kts 222°
2026-05-07 01:38 33.64788 -84.43548 1011 ft 0 kts 214°
2026-05-07 01:39 33.64787 -84.43549 1011 ft 0 kts 214°
2026-05-07 01:39 33.64778 -84.43557 1011 ft 3 kts 214°
2026-05-07 01:39 33.64744 -84.43584 1012 ft 6 kts 213°
2026-05-07 01:39 33.64708 -84.43610 1012 ft 6 kts 209°
2026-05-07 01:40 33.64628 -84.43663 1013 ft 16 kts 210°
2026-05-07 01:40 33.64534 -84.43719 1014 ft 13 kts 199°
2026-05-07 01:40 33.64459 -84.43767 1015 ft 11 kts 227°
2026-05-07 01:40 33.64404 -84.43787 1015 ft 7 kts 179°
2026-05-07 01:41 33.64343 -84.43786 1015 ft 10 kts 179°
2026-05-07 01:41 33.64262 -84.43786 1015 ft 11 kts 180°
2026-05-07 01:41 33.64187 -84.43786 1015 ft 10 kts 181°
2026-05-07 01:41 33.64117 -84.43786 1015 ft 9 kts 181°
2026-05-07 01:42 33.64050 -84.43788 1014 ft 9 kts 182°
2026-05-07 01:42 33.63980 -84.43787 1013 ft 9 kts 179°
2026-05-07 01:42 33.63935 -84.43787 1013 ft 9 kts 180°
2026-05-07 01:42 33.63864 -84.43795 1013 ft 6 kts 205°
2026-05-07 01:43 33.63843 -84.43829 1013 ft 4 kts 257°
2026-05-07 01:43 33.63841 -84.43853 1014 ft 0 kts 269°
2026-05-07 01:43 33.63841 -84.43854 1014 ft 0 kts 269°
2026-05-07 01:43 33.63841 -84.43862 1014 ft 1 kts 270°
2026-05-07 01:44 33.63841 -84.43863 1014 ft 0 kts 270°